Weather observations for the past three days for
Florence Municipal Airport
Metric (Imperial)
Date Time (pdt) Wind (kph) Vis. (km) Weather Sky Cond. Temperature (ºC) Relative Humidity Wind Chill (°C) Heat Index (°C) Pressure Precipitation (cm)
Air Dwpt 6 hour altimeter (cm) sea level (mb) 1 hr 3 hr 6 hr
Max. Min.
08 13:15 SW 13 16.09 Fair CLR 14 8 67% 76.73 0.0
08 12:55 W 15 16.09 Fair CLR 14 8 67% 76.71 0.0
08 12:35 W 13 16.09 A Few Clouds FEW024 14 8 67% 76.73 0.0
08 12:15 W 11 16.09 Mostly Cloudy BKN025 14 8 67% 76.73 0.0
08 11:55 Vrbl 7 16.09 Overcast OVC026 14 8 67% 76.73 0.0
08 11:35 SW 7 16.09 Overcast OVC024 13 8 72% 76.76 0.0
08 11:15 SW 7 16.09 Overcast OVC023 13 8 72% 76.76 0.0
08 10:55 W 9 G 19 16.09 Overcast OVC023 13 8 72% 76.76 0.0
08 10:35 Vrbl 9 16.09 Overcast OVC025 13 8 72% 76.73 0.0
08 10:15 S 15 16.09 Overcast OVC025 13 8 72% 76.73 0.0
08 09:55 Vrbl 9 16.09 Overcast OVC024 13 8 72% 76.71 0.0
08 09:35 S 15 16.09 Overcast OVC025 12 8 77% 76.71 0.0
08 09:15 S 9 16.09 Overcast OVC026 12 8 77% 76.68 0.0
08 08:55 Vrbl 9 16.09 Overcast OVC027 12 8 77% 76.68 0.0
08 08:35 Calm 16.09 Overcast OVC026 12 8 77% 76.68 0.0
08 08:15 Calm 16.09 Overcast OVC026 12 7 72% 76.68 0.0
08 07:55 Calm 16.09 Overcast OVC026 12 8 77% 76.63 0.0
08 07:35 SW 7 16.09 Overcast OVC025 12 7 72% 76.63 0.0
08 07:15 Calm 16.09 Overcast OVC026 12 7 72% 76.61 0.0
08 06:55 S 6 16.09 Overcast OVC025 12 8 77% 76.61 0.0
08 06:35 Calm 16.09 Overcast OVC025 11 7 77% 76.58 0.0
08 06:15 Calm 16.09 Overcast OVC026 12 7 72% 76.58 0.0
08 05:55 Vrbl 7 16.09 Overcast OVC025 12 7 72% 76.58 0.0
08 05:35 Calm 16.09 Overcast OVC025 12 7 72% 76.61 0.0
08 05:15 W 7 16.09 Overcast OVC025 12 7 72% 76.61 0.0
08 04:55 Calm 16.09 Overcast BKN023 OVC028 12 7 72% 76.58 0.0
08 04:35 SW 6 16.09 Overcast OVC023 12 8 77% 76.58 0.0
08 04:15 Vrbl 7 16.09 Overcast OVC023 12 8 77% 76.56 0.0
08 03:55 Calm 16.09 Overcast OVC023 11 8 82% 76.53 0.0
08 03:35 Calm 16.09 Overcast OVC022 11 8 82% 76.56 0.0
08 03:15 Calm 16.09 Overcast OVC021 11 8 82% 76.53 0.0
08 02:55 Vrbl 6 16.09 Overcast OVC021 11 8 82% 76.53 0.0
08 02:35 Calm 16.09 Overcast OVC020 11 8 82% 76.53 0.0
08 02:15 Calm 16.09 Overcast OVC020 11 8 82% 76.5 0.0
08 01:55 Calm 16.09 Overcast OVC020 11 8 82% 76.5 0.0
08 01:35 Calm 16.09 Overcast OVC019 11 8 82% 76.48 0.0
08 01:15 Calm 16.09 Overcast OVC019 12 8 77% 76.48 0.0
08 00:55 Calm 16.09 Overcast OVC019 11 9 88% 76.48 0.0
08 00:35 Calm 14.48 Overcast OVC019 11 9 88% 76.48 0.0
08 00:15 Calm 14.48 Overcast OVC017 10 9 94% 76.48 0.0
07 23:55 Calm 12.87 Overcast OVC017 10 9 94% 76.48 0.0
07 23:35 Calm 12.87 Overcast OVC017 9 9 100% 76.48 0.0
07 23:15 Calm 14.48 Mostly Cloudy BKN016 9 9 100% 76.45 0.0
07 22:55 Calm 12.87 Partly Cloudy FEW002 SCT015 9 9 100% 76.45 0.0
07 22:35 Calm 14.48 Partly Cloudy FEW002 SCT015 10 9 94% 76.45 0.0
07 22:15 Calm 14.48 A Few Clouds FEW015 11 9 88% 76.45 0.0
07 21:55 Calm 14.48 Fair CLR 11 9 88% 76.43 0.0
07 21:35 Calm 16.09 Fair CLR 11 9 88% 76.43 0.0
07 21:15 NW 7 16.09 A Few Clouds FEW015 11 9 88% 76.43 0.0
07 20:55 NW 9 16.09 A Few Clouds FEW016 11 9 88% 76.43 0.0
07 20:35 NW 9 14.48 Fair CLR 12 9 82% 76.43 0.0
07 20:15 NW 9 16.09 Fair CLR 12 9 82% 76.4 0.0
07 19:55 NW 11 16.09 Fair CLR 12 10 88% 76.38 0.0
07 19:35 NW 13 G 24 16.09 Fair CLR 13 10 82% 76.38 0.0
07 19:15 NW 19 16.09 Fair CLR 13 9 77% 76.38 0.0
07 18:55 NW 15 16.09 Fair CLR 13 9 77% 76.38 0.0
07 18:35 NW 19 16.09 Fair CLR 14 9 72% 76.38 0.0
07 18:15 NW 19 16.09 Fair CLR 14 9 72% 76.38 0.0
07 17:55 NW 17 16.09 Fair CLR 14 9 72% 76.4 0.0
07 17:35 NW 22 G 33 16.09 Fair CLR 14 9 72% 76.4 0.0
07 17:15 N 20 G 33 16.09 Fair CLR 14 9 72% 76.4 0.0
07 16:55 NW 20 G 35 16.09 Fair CLR 14 9 72% 76.4 0.0
07 16:35 NW 20 G 31 16.09 Fair CLR 15 9 68% 76.4 0.0
07 16:15 NW 22 16.09 Fair CLR 15 9 68% 76.43 0.0
07 15:55 NW 20 G 30 16.09 Fair CLR 15 9 68% 76.43 0.0
07 15:35 N 24 16.09 Fair CLR 15 9 68% 76.45 0.0
07 15:15 N 24 16.09 Fair CLR 15 9 68% 76.45 0.0
07 14:55 N 22 G 33 16.09 Fair CLR 15 9 68% 76.48 0.0
07 14:35 N 20 G 31 16.09 Fair CLR 15 9 68% 76.48 0.0
07 14:15 NW 22 G 31 16.09 Fair CLR 15 9 68% 76.48 0.0
07 13:15 N 20 16.09 Fair CLR 15 9 68% 76.48 0.0
07 12:55 NW 20 16.09 Fair CLR 15 10 72% 76.5 0.0
07 12:35 NW 19 16.09 Fair CLR 15 10 72% 76.5 0.0
07 12:15 NW 20 16.09 Mostly Cloudy BKN023 15 10 72% 76.5 0.0
07 11:55 NW 19 16.09 Overcast OVC023 14 10 77% 76.53 0.0
07 11:35 NW 17 16.09 Overcast OVC022 14 10 77% 76.53 0.0
07 11:15 NW 19 16.09 Overcast OVC020 14 10 77% 76.53 0.0
07 10:55 NW 17 16.09 Overcast OVC019 14 10 77% 76.53 0.0
07 10:35 N 11 14.48 Overcast OVC018 14 10 77% 76.53 0.0
07 10:15 N 13 16.09 Overcast OVC018 14 10 77% 76.53 0.0
07 09:55 NW 15 16.09 Overcast OVC018 13 10 82% 76.56 0.0
07 09:35 NW 13 16.09 Overcast BKN018 OVC022 13 10 82% 76.56 0.0
07 09:15 NW 13 16.09 Overcast OVC020 13 10 82% 76.56 0.0
07 08:55 Calm 11.27 Overcast OVC020 13 10 82% 76.56 0.0
07 08:35 Calm 16.09 Overcast OVC019 13 10 82% 76.56 0.0
07 08:15 Calm 14.48 Overcast OVC019 13 10 82% 76.56 0.0
07 07:55 Vrbl 6 14.48 Overcast OVC016 12 10 88% 76.56 0.0
07 07:35 Calm 16.09 Overcast OVC018 12 10 88% 76.56 0.0
07 07:15 Calm 14.48 Overcast OVC018 12 10 88% 76.56 0.0
07 06:55 Calm 16.09 Overcast OVC017 12 10 88% 76.56 0.0
07 06:35 Calm 16.09 Overcast OVC017 12 9 82% 76.53 0.0
07 06:15 Calm 16.09 Overcast OVC017 12 10 88% 76.53 0.0
07 05:55 Calm 16.09 Overcast OVC017 12 9 82% 76.53 0.0
07 05:35 Calm 16.09 Overcast OVC017 12 10 88% 76.53 0.0
07 05:15 N 6 16.09 Overcast OVC017 12 9 82% 76.56 0.0
07 04:55 N 9 16.09 Overcast OVC017 12 9 82% 76.56 0.0
07 04:35 N 7 16.09 Overcast OVC017 12 10 88% 76.58 0.0
07 04:15 Calm 16.09 Overcast OVC017 12 10 88% 76.58 0.0
07 03:55 Calm 16.09 Overcast OVC017 12 10 88% 76.58 0.0
07 03:35 Calm 16.09 Overcast OVC017 12 10 88% 76.58 0.0
07 03:15 Calm 16.09 Overcast OVC017 12 10 88% 76.58 0.0
07 02:55 Calm 16.09 Overcast OVC016 12 10 88% 76.61 0.0
07 02:35 Calm 16.09 Overcast OVC016 12 10 88% 76.61 0.0
07 02:15 Calm 16.09 Overcast OVC016 12 10 88% 76.63 0.0
07 01:55 Calm 16.09 Overcast OVC015 12 10 88% 76.63 0.0
07 01:35 Calm 16.09 Overcast OVC016 12 10 88% 76.66 0.0
07 01:15 Calm 16.09 Overcast OVC017 12 10 88% 76.66 0.0
07 00:55 Calm 16.09 Overcast OVC017 12 10 88% 76.66 0.0
07 00:35 Calm 16.09 Overcast OVC018 12 10 88% 76.66 0.0
07 00:15 Vrbl 6 16.09 Overcast OVC018 13 10 82% 76.66 0.0
06 23:55 Calm 16.09 Overcast OVC018 12 11 94% 76.66 0.0
06 23:35 Calm 16.09 Overcast OVC019 13 11 88% 76.66 0.0
06 23:15 NW 6 16.09 Overcast OVC019 13 10 82% 76.68 0.0
06 22:55 N 11 16.09 Overcast OVC018 13 11 88% 76.68 0.0
06 22:35 NW 7 16.09 Overcast OVC017 12 10 88% 76.68 0.0
06 22:15 NW 7 16.09 Overcast OVC016 13 10 82% 76.71 0.0
06 21:55 N 9 16.09 Overcast OVC018 12 11 94% 76.71 0.0
06 21:35 NW 9 16.09 Overcast OVC019 12 11 94% 76.68 0.0
06 21:15 N 7 16.09 Overcast OVC019 12 11 94% 76.71 0.0
06 20:55 NW 7 16.09 Overcast OVC019 12 11 94% 76.68 0.0
06 20:35 NW 6 16.09 Overcast OVC019 12 11 94% 76.68 0.0
06 20:15 NW 7 14.48 Overcast OVC019 12 11 94% 76.68 0.0
06 19:55 NW 7 16.09 Overcast OVC019 13 11 88% 76.68 0.0
06 19:35 NW 7 16.09 Overcast OVC021 13 11 88% 76.68 0.0
06 19:15 NW 9 14.48 Overcast OVC021 13 11 88% 76.68 0.0
06 18:55 NW 9 16.09 Overcast OVC020 13 11 88% 76.68 0.0
06 18:35 NW 9 16.09 Overcast OVC020 13 11 88% 76.71 0.0
06 18:15 NW 7 16.09 Overcast OVC020 13 11 88% 76.71 0.0
06 17:55 NW 11 16.09 Overcast OVC021 13 11 88% 76.71 0.0
06 17:35 NW 13 16.09 Overcast OVC022 13 11 88% 76.71 0.0
06 17:15 NW 13 16.09 Overcast OVC022 13 11 88% 76.73 0.0
06 16:55 NW 13 16.09 Overcast OVC022 13 11 88% 76.73 0.0
06 16:35 NW 13 16.09 Overcast OVC021 14 11 82% 76.73 0.0
06 16:15 NW 7 16.09 Overcast OVC020 13 11 88% 76.73 0.0
06 15:55 NW 11 16.09 Overcast OVC018 14 11 82% 76.73 0.0
06 15:35 NW 11 16.09 Overcast OVC017 13 11 88% 76.73 0.0
06 15:15 NW 13 16.09 Overcast OVC018 13 11 88% 76.76 0.0
06 14:55 NW 11 16.09 Overcast BKN013 OVC018 13 11 88% 76.76 0.0
06 14:35 W 9 16.09 Overcast OVC013 13 11 88% 76.76 0.0
06 14:15 Vrbl 7 16.09 Overcast OVC012 13 11 88% 76.76 0.0
06 13:55 W 7 16.09 Overcast OVC013 13 11 88% 76.76 0.0
06 13:35 Vrbl 9 G 19 16.09 Overcast OVC014 13 11 88% 76.73 0.0
06 13:15 Vrbl 7 16.09 Overcast OVC015 13 11 88% 76.73 0.0
06 12:55 Vrbl 9 16.09 Overcast OVC016 13 11 88% 76.73 0.0
06 12:35 W 7 16.09 Overcast OVC015 13 11 88% 76.73 0.0
06 12:15 W 7 16.09 Overcast OVC015 13 11 88% 76.73 0.0
06 11:55 W 9 16.09 Overcast OVC014 13 10 82% 76.73 0.0
06 11:35 W 11 16.09 Overcast OVC013 13 11 88% 76.71 0.0
06 11:15 W 9 16.09 Overcast OVC012 13 11 88% 76.71 0.0
06 10:55 Vrbl 6 16.09 Overcast OVC012 12 11 94% 76.71 0.0
06 10:35 NW 7 11.27 Overcast OVC012 12 11 94% 76.71 0.0
06 10:15 Vrbl 9 14.48 Overcast OVC011 12 11 94% 76.71 0.0
06 09:55 Vrbl 6 16.09 Overcast OVC011 12 11 94% 76.68 0.0
06 09:35 S 6 16.09 Overcast OVC011 12 11 94% 76.66 0.0
06 09:15 Calm 16.09 Overcast OVC011 12 11 94% 76.63 0.0
06 08:55 S 7 16.09 Overcast OVC011 12 11 94% 76.63 0.0
06 08:35 Calm 16.09 Overcast OVC011 12 11 94% 76.63 0.0
06 08:15 Calm 16.09 Overcast OVC011 12 10 88% 76.63 0.0
06 07:55 Calm 16.09 Overcast OVC012 12 11 94% 76.63 0.0
06 07:35 Calm 16.09 Overcast OVC012 12 10 88% 76.63 0.0
06 07:15 Calm 16.09 Overcast OVC012 12 10 88% 76.61 0.0
06 06:55 N 6 16.09 Overcast OVC012 12 10 88% 76.61 0.0
06 06:35 Calm 16.09 Overcast OVC013 12 10 88% 76.58 0.0
06 06:15 N 6 16.09 Overcast OVC013 12 10 88% 76.58 0.0
06 05:55 N 6 16.09 Overcast OVC013 12 10 88% 76.56 0.0
06 05:35 Calm 16.09 Overcast OVC013 12 11 94% 76.56 0.0
06 05:15 Calm 16.09 Overcast OVC013 12 11 94% 76.56 0.0
06 04:55 Calm 16.09 Overcast OVC013 12 11 94% 76.56 0.0
06 04:35 Calm 16.09 Overcast OVC013 12 10 88% 76.53 0.0
06 04:15 NW 7 16.09 Overcast OVC013 12 10 88% 76.53 0.0
06 03:55 Vrbl 7 16.09 Overcast OVC014 12 11 94% 76.5 0.0
06 03:35 Calm 16.09 Overcast OVC014 12 10 88% 76.5 0.0
06 03:15 Vrbl 6 16.09 Overcast OVC014 12 10 88% 76.48 0.0
06 02:55 Calm 16.09 Overcast OVC014 13 10 82% 76.48 0.0
06 02:35 Calm 16.09 Overcast OVC015 12 11 94% 76.48 0.0
06 02:15 Calm 16.09 Overcast OVC015 12 12 100% 76.45 0.0
06 01:55 Calm 16.09 Overcast OVC016 12 11 94% 76.45 0.0
06 01:35 Calm 16.09 Overcast OVC015 12 11 94% 76.45 0.0
06 01:15 Calm 16.09 Overcast OVC016 12 12 100% 76.43 0.0
06 00:55 Calm 16.09 Overcast OVC016 12 12 100% 76.43 0.0
06 00:35 Calm 16.09 Overcast OVC015 12 12 100% 76.4 0.0
06 00:15 Calm 16.09 Overcast OVC015 12 11 94% 76.4 0.0
05 23:55 Calm 16.09 Overcast OVC015 11 11 100% 76.4 0.0
05 23:35 Calm 16.09 Overcast OVC016 11 11 100% 76.4 0.0
05 23:15 Calm 16.09 Overcast OVC015 12 11 94% 76.38 0.0
05 22:55 Calm 16.09 Overcast OVC015 12 11 94% 76.38 0.0
05 22:35 Calm 16.09 Overcast OVC015 12 12 100% 76.38 0.0
05 22:15 Calm 16.09 Mostly Cloudy BKN015 12 11 94% 76.38 0.0
05 21:55 Calm 16.09 A Few Clouds FEW016 12 12 100% 76.35 0.0
05 21:35 NW 6 16.09 Fair CLR 12 12 100% 76.35 0.0
05 21:15 Calm 16.09 Fair CLR 12 12 100% 76.33 0.0
05 20:55 NW 6 11.27 Fair CLR 13 12 94% 76.3 0.0
05 20:35 NW 7 16.09 Fair CLR 13 12 94% 76.3 0.0
05 20:15 NW 11 16.09 Fair CLR 13 12 94% 76.28 0.0
05 19:55 NW 11 16.09 Fair CLR 13 12 94% 76.28 0.0
05 19:35 NW 13 16.09 Fair CLR 14 12 88% 76.25 0.0
05 19:15 NW 13 16.09 Fair CLR 14 12 88% 76.25 0.0
05 18:55 NW 15 16.09 Fair CLR 14 12 88% 76.25 0.0
05 18:35 NW 13 16.09 Fair CLR 14 11 82% 76.25 0.0
05 18:15 NW 15 16.09 Fair CLR 15 12 82% 76.25 0.0
05 17:55 NW 19 16.09 Fair CLR 15 11 77% 76.25 0.0
05 17:35 NW 15 16.09 Fair CLR 15 11 77% 76.25 0.0
05 17:15 NW 19 16.09 Fair CLR 15 11 77% 76.25 0.0
05 16:55 NW 17 16.09 Fair CLR 15 11 77% 76.25 0.0
05 16:35 NW 15 16.09 Fair CLR 15 11 77% 76.25 0.0
05 16:15 NW 19 16.09 Fair CLR 15 12 82% 76.25 0.0
05 15:55 NW 17 16.09 Fair CLR 15 12 82% 76.25 0.0
05 15:35 NW 17 16.09 Fair CLR 15 11 77% 76.25 0.0
05 15:15 NW 15 16.09 Fair CLR 15 11 77% 76.28 0.0
05 14:55 NW 17 16.09 A Few Clouds FEW026 15 12 82% 76.28 0.0
05 14:35 NW 15 16.09 Mostly Cloudy BKN026 15 12 82% 76.28 0.0
05 14:15 NW 13 16.09 Overcast OVC026 15 12 82% 76.28 0.0
05 13:55 NW 15 16.09 Overcast OVC026 15 12 82% 76.28 0.0
05 13:35 NW 11 16.09 Overcast OVC023 14 12 88% 76.3 0.0
Date Time (pdt) Wind (kph) Vis. (km) Weather Sky Cond. Air Dwpt Max. Min. Relative Humidity Wind Chill (°C) Heat Index (°C) altimeter (cm) sea level (mb) 1 hr 3 hr 6 hr
6 hour
Temperature (ºC) Pressure Precipitation (cm)